Temperature
3 3 4 4 5 5 6 6 6 6 6 7 7 7 7 7 7 8 8 8 7 8 8 8 8 8 8 8 8 8 8 8 8 8 7 7 7 7 7 7 7 7 7
2 3 3 4 4 5 5 5 6 6 6 6 6 6 7 7 7 7 7 7 7 7 8 8 8 7 7 7 7 7 7 7 7 7 7 7 6 6 6 6 6 6 6
1 2 2 3 4 4 4 5 5 5 5 6 6 6 6 6 6 7 7 7 7 7 7 7 7 7 7 7 7 7 7 7 7 7 7 6 6 6 6 6 6 6 6
1 1 2 2 3 3 4 4 4 5 5 5 6 6 6 6 6 6 6 7 7 7 7 7 7 7 7 7 7 7 6 6 6 6 6 6 5 5 5 5 5 5 5
-0 0 1 1 2 3 3 3 4 4 4 5 5 5 5 5 6 6 6 6 6 6 6 6 6 7 6 6 6 6 6 6 6 6 6 5 5 5 5 5 5 5 5
-1 -0 0 1 1 2 3 3 3 4 4 4 4 4 5 5 5 5 6 6 6 6 6 6 6 6 6 6 6 6 6 6 6 5 5 5 5 5 5 4 4 4 4
-1 -1 -1 -0 0 1 2 2 2 3 3 3 4 4 4 4 4 5 5 5 5 5 5 5 5 5 5 5 5 5 5 5 5 5 5 5 5 4 4 4 4 4 4
-2 -2 -1 -1 -0 0 1 1 2 2 2 3 3 3 3 4 4 4 4 4 4 5 5 5 5 5 5 5 5 5 5 5 4 4 4 4 4 4 4 4 3 3 3
-3 -2 -2 -2 -1 -0 0 1 1 1 2 2 2 3 3 3 3 3 4 4 4 4 4 4 4 4 4 4 4 4 4 4 4 4 3 3 3 3 3 3 3 3 3
-3 -3 -2 -2 -2 -1 -1 -0 0 1 1 1 1 2 2 3 3 3 3 3 3 3 3 3 3 3 3 3 4 4 4 4 3 3 3 3 3 3 3 2 2 2 2
-4 -3 -3 -2 -2 -2 -1 -0 -0 0 0 1 1 1 2 2 2 2 2 2 2 2 2 3 3 3 3 3 3 3 3 3 3 2 2 2 2 2 2 2 2 2 2
-4 -4 -3 -3 -2 -2 -1 -1 -1 -0 -0 0 0 1 1 1 1 2 2 2 2 2 2 2 2 2 2 2 2 2 2 2 2 2 2 2 1 1 1 1 1 1 1
-4 -4 -4 -3 -3 -2 -2 -2 -1 -1 -1 -1 -0 -0 0 0 1 1 1 1 1 1 1 1 1 1 1 1 1 1 1 1 1 1 1 1 1 1 1 0 1 0 0
-5 -5 -4 -4 -3 -3 -3 -2 -2 -2 -2 -1 -1 -1 -1 -0 -0 0 0 0 0 0 1 1 1 0 0 0 0 0 0 0 0 0 0 0 0 -0 -0 -0 -0 -0 -0
-5 -5 -5 -4 -4 -4 -3 -3 -3 -2 -2 -2 -2 -2 -1 -1 -1 -0 -0 -0 -0 -0 -0 -0 -0 -0 -0 -0 -0 -0 -0 -0 -0 -0 -0 -0 -1 -1 -1 -1 -1 -1 -1
-6 -6 -6 -5 -5 -5 -4 -4 -4 -3 -3 -3 -2 -2 -2 -2 -1 -1 -1 -1 -1 -1 -1 -1 -1 -1 -1 -1 -1 -1 -1 -1 -1 -1 -1 -1 -1 -1 -1 -2 -2 -2 -2
-7 -7 -6 -6 -6 -6 -5 -5 -4 -4 -4 -3 -3 -3 -2 -2 -2 -2 -2 -2 -2 -1 -1 -1 -1 -1 -1 -1 -1 -1 -1 -1 -2 -2 -2 -2 -2 -2 -2 -2 -2 -2 -2
-7 -7 -7 -7 -7 -7 -6 -6 -5 -5 -4 -4 -4 -3 -3 -3 -3 -2 -2 -2 -2 -2 -2 -2 -2 -2 -2 -2 -2 -2 -2 -2 -2 -2 -2 -2 -2 -2 -3 -3 -3 -3 -3
-8 -8 -8 -8 -7 -7 -7 -6 -6 -6 -5 -5 -5 -4 -4 -4 -3 -3 -3 -3 -3 -3 -3 -3 -3 -3 -3 -3 -3 -3 -3 -3 -3 -3 -3 -3 -3 -3 -3 -3 -3 -4 -4
-8 -8 -8 -8 -8 -8 -7 -7 -7 -6 -6 -6 -5 -5 -5 -4 -4 -4 -4 -4 -4 -4 -3 -3 -3 -3 -3 -3 -3 -3 -3 -4 -4 -4 -4 -4 -4 -4 -4 -4 -4 -4 -5
-9 -9 -8 -8 -8 -8 -8 -8 -7 -7 -7 -7 -6 -6 -6 -5 -5 -5 -5 -4 -4 -4 -4 -4 -4 -4 -4 -4 -4 -4 -4 -4 -4 -4 -4 -4 -4 -4 -4 -5 -5 -5 -5
-9 -9 -9 -9 -9 -9 -8 -8 -8 -8 -8 -7 -7 -7 -6 -6 -6 -6 -5 -5 -5 -5 -5 -5 -5 -5 -5 -4 -4 -4 -5 -5 -5 -5 -5 -5 -5 -5 -5 -5 -5 -5 -6
-10 -9 -9 -9 -9 -9 -9 -9 -8 -8 -8 -8 -7 -7 -7 -7 -7 -6 -6 -6 -6 -6 -6 -5 -5 -5 -5 -5 -5 -5 -5 -5 -5 -5 -5 -5 -5 -6 -6 -6 -6 -6 -6
-10 -10 -10 -10 -9 -9 -9 -9 -9 -9 -8 -8 -8 -8 -7 -7 -7 -7 -7 -6 -6 -6 -6 -6 -6 -6 -6 -6 -5 -5 -6 -6 -6 -6 -6 -6 -6 -6 -6 -6 -6 -6 -6
-10 -10 -10 -10 -10 -10 -10 -10 -9 -9 -9 -9 -8 -8 -8 -8 -7 -7 -7 -7 -7 -7 -6 -6 -6 -6 -6 -6 -6 -6 -6 -6 -6 -6 -6 -6 -6 -6 -7 -7 -7 -7 -7
-11 -11 -10 -10 -10 -10 -10 -10 -10 -9 -9 -9 -9 -9 -8 -8 -8 -8 -7 -7 -7 -7 -7 -7 -7 -7 -7 -6 -6 -6 -6 -7 -7 -7 -7 -7 -7 -7 -7 -7 -7 -7 -8
Wind_Speed
5 5 3 4 3 2 2 3 5 5 6 7 7 6 6 6 5 5 5 5 6 5 4 5 5 4 3 3 3 3 3 3 3 2 1 2 2 3 3 3 2 2 2
5 5 4 3 3 2 2 3 3 5 6 6 6 6 6 6 6 6 6 6 6 6 6 5 5 4 5 4 4 4 4 3 4 3 2 2 2 3 3 2 2 2 2
5 5 4 4 3 2 2 3 3 4 5 5 6 7 7 6 6 7 6 6 6 6 6 6 6 6 6 4 4 4 4 3 3 4 3 2 1 2 1 1 1 1 1
5 5 4 4 4 3 2 2 3 3 4 5 6 6 6 6 6 6 6 6 5 5 6 6 6 7 7 6 5 5 4 4 4 4 3 2 2 2 2 2 1 1 1
5 5 5 5 4 3 2 2 2 3 4 4 5 5 5 6 6 6 6 6 6 5 5 5 5 6 7 7 5 6 6 5 4 4 3 2 2 3 3 3 3 1 1
5 5 5 5 5 3 2 2 2 3 3 4 4 5 5 5 6 7 7 6 6 6 5 4 4 5 6 6 7 7 8 7 7 5 4 4 4 4 3 3 3 2 2
6 5 5 5 5 4 3 2 3 3 3 3 4 4 5 5 6 7 7 6 6 6 6 5 4 4 4 4 4 5 5 6 7 6 6 6 5 6 6 5 4 3 3
6 6 5 5 4 4 3 3 3 3 3 3 4 4 4 4 5 7 7 5 5 5 5 6 6 5 5 6 5 4 3 2 4 4 5 5 5 6 6 5 4 2 1
6 6 6 5 5 4 4 4 3 3 3 3 3 4 4 3 4 6 6 5 4 4 4 4 5 5 7 7 6 5 4 2 2 4 4 4 5 7 8 5 4 3 2
7 7 6 5 4 5 5 4 3 3 3 3 3 3 3 3 4 5 5 4 5 4 3 3 5 6 7 8 6 6 6 4 4 3 3 2 3 4 6 5 5 4 2
7 7 5 5 4 4 4 3 3 3 3 2 2 2 2 3 4 5 6 4 5 5 4 3 3 6 7 7 6 5 7 5 4 4 3 2 2 2 2 3 4 3 3
7 6 5 5 4 3 2 2 2 3 3 3 2 1 1 2 2 4 6 5 5 5 4 3 3 6 6 6 5 5 6 5 4 4 3 2 2 2 2 2 3 3 2
6 5 5 5 3 3 2 1 1 2 2 2 2 2 2 1 1 3 5 6 5 3 3 5 5 6 5 4 5 6 5 4 4 4 4 3 2 2 3 2 2 3 3
5 5 4 4 4 3 2 1 1 1 2 2 2 2 2 1 2 2 3 3 4 3 3 4 5 5 4 3 3 3 3 3 4 4 4 3 2 2 2 2 1 1 1
5 5 4 3 3 3 3 2 2 1 2 3 3 2 3 3 3 3 3 3 4 4 5 3 3 3 3 2 2 2 2 3 3 3 3 3 3 3 2 1 1 1 2
5 5 4 3 3 3 2 3 4 2 1 1 1 1 2 2 2 3 3 4 5 7 5 4 4 4 4 4 3 3 2 3 3 3 3 4 3 3 2 2 1 2 2
4 4 3 3 3 3 2 2 2 3 3 2 2 2 1 1 1 2 3 4 5 6 4 3 3 4 3 3 3 3 3 2 3 3 3 3 3 3 3 3 2 2 2
4 5 4 3 3 3 2 2 1 1 2 2 2 3 2 2 2 2 3 3 3 3 2 3 3 3 3 3 3 3 2 2 2 3 3 3 3 3 3 3 3 3 3
4 3 3 3 3 3 3 2 2 1 1 1 1 2 3 2 3 3 3 2 3 2 2 2 2 2 3 3 3 3 3 3 3 3 3 3 3 3 3 3 3 3 3
4 6 5 3 3 3 3 2 2 1 1 1 1 1 1 2 1 1 1 1 2 2 2 2 2 2 2 3 3 3 3 3 3 3 3 3 3 3 3 3 3 3 3
3 4 6 4 3 3 3 3 2 1 1 1 1 1 2 1 1 1 1 1 1 1 1 1 1 1 2 2 2 3 3 3 3 3 3 3 3 3 3 3 3 3 3
3 3 3 3 3 2 2 2 2 2 1 1 1 2 3 2 1 1 1 1 0 0 0 1 1 1 2 2 2 3 3 3 3 3 3 3 3 3 3 3 3 3 3
3 3 3 3 2 3 3 2 2 2 2 2 2 1 1 1 1 1 1 1 1 0 0 1 1 1 1 2 3 3 4 4 4 4 4 3 3 3 3 4 4 3 3
2 3 3 3 2 2 2 2 2 2 2 2 2 1 1 1 1 1 1 1 1 1 1 0 1 2 2 2 3 4 5 5 5 6 6 5 4 4 4 4 4 4 4
2 2 2 2 2 2 2 2 2 2 2 2 2 2 1 1 1 1 1 1 1 1 2 2 2 2 3 4 4 5 5 6 6 6 6 6 5 5 5 5 5 4 4
2 2 2 2 2 2 2 2 2 2 2 2 2 2 2 1 1 1 2 2 2 2 2 2 3 3 4 5 5 6 6 7 7 7 7 6 5 5 5 5 5 5 5
Wind_Direction
329 319 299 292 271 249 223 213 202 192 187 187 187 188 187 186 185 184 190 187 188 191 190 189 196 185 182 178 170 167 165 160 188 222 185 160 160 161 173 182 188 176 173
320 313 298 296 277 248 242 227 206 194 193 190 185 188 192 191 190 192 193 193 193 195 195 192 201 190 190 181 178 184 180 174 174 197 197 182 191 176 171 169 190 202 202
315 313 310 307 290 260 250 246 225 204 192 191 189 191 194 195 196 199 195 196 199 200 196 196 201 193 200 190 184 190 187 176 171 177 192 183 197 175 153 150 155 200 244
314 312 309 304 290 275 256 255 239 216 198 193 194 195 193 195 199 200 194 196 202 206 203 200 200 200 203 195 192 193 183 174 168 171 179 182 184 174 165 188 221 224 273
306 304 301 303 291 281 261 256 247 221 206 197 192 195 195 195 199 196 195 199 202 206 207 205 204 202 200 197 193 189 180 178 175 179 187 182 190 184 199 189 206 205 271
294 288 297 301 294 287 271 260 256 235 210 196 194 194 197 203 204 203 201 196 198 204 206 205 203 195 195 194 194 188 186 184 188 188 196 202 212 203 185 184 184 185 240
307 295 295 292 285 283 273 262 254 240 215 201 203 200 199 204 203 203 202 199 195 204 205 199 201 198 185 181 187 186 194 199 196 192 194 204 204 199 182 190 197 199 218
309 305 300 288 279 282 269 255 256 240 214 204 208 209 204 205 200 199 196 197 193 199 201 198 199 197 195 185 175 176 185 201 205 194 194 202 202 191 183 185 183 161 101
317 308 303 287 277 275 263 255 252 235 221 208 211 202 202 209 202 202 194 184 187 195 197 195 193 193 195 182 173 173 176 187 172 177 181 180 185 183 170 147 154 162 215
313 308 302 287 274 267 259 254 248 227 218 212 217 205 199 205 204 198 192 181 181 184 184 190 195 192 187 182 181 177 185 190 162 147 129 125 146 161 171 175 176 182 188
315 317 309 294 278 270 265 254 234 217 208 202 200 213 209 209 197 190 191 186 182 178 185 191 193 187 185 186 189 188 189 174 160 157 152 135 120 127 151 169 175 178 190
322 319 315 307 296 294 282 266 229 201 197 193 187 216 227 209 196 191 190 192 185 179 185 184 183 179 178 179 182 177 166 153 147 150 153 163 168 173 152 144 153 156 168
324 326 323 323 325 324 309 281 251 205 190 196 192 201 223 218 200 201 191 186 183 180 170 166 166 169 170 173 175 167 159 156 154 160 174 181 174 160 139 123 109 104 83
332 332 331 337 342 344 333 309 263 220 204 201 202 205 208 212 196 189 179 171 166 161 150 143 147 149 142 143 155 165 167 169 167 173 170 156 138 135 140 153 165 162 146
344 343 341 342 342 344 340 324 294 258 222 215 215 211 203 211 213 195 176 175 169 165 147 136 141 147 150 152 147 146 152 154 159 154 153 149 149 150 157 159 158 159 192
346 346 346 345 344 344 344 344 349 313 321 306 261 227 227 219 194 180 174 167 163 161 155 163 169 169 171 174 173 170 173 173 168 160 160 163 168 171 171 167 166 178 201
340 338 339 342 343 343 345 347 351 5 24 41 48 38 55 137 155 166 168 158 159 158 159 162 168 173 172 172 175 178 186 176 162 161 166 169 172 176 175 177 183 197 217
337 337 341 340 336 334 334 332 333 352 359 9 25 45 53 84 107 119 138 134 143 148 148 157 168 173 171 172 175 175 174 166 163 167 169 173 178 182 184 190 196 206 218
335 336 337 338 336 335 338 338 342 354 7 6 21 32 40 59 79 87 113 129 145 154 153 159 168 173 171 170 171 171 171 175 175 177 180 181 185 185 193 201 206 215 221
334 337 343 343 342 347 353 353 349 354 2 360 4 8 29 61 81 81 79 103 132 150 156 163 169 174 174 172 169 168 171 179 180 184 186 186 188 190 194 196 202 212 226
329 334 341 342 343 345 353 355 354 356 356 358 342 351 27 88 102 106 104 87 122 156 169 175 175 178 182 179 178 178 183 192 193 191 190 191 191 198 202 203 209 216 223
327 330 334 335 339 347 357 355 352 353 358 359 350 5 27 46 56 46 45 42 50 62 166 176 185 197 203 197 193 189 193 202 202 196 195 196 198 201 203 209 212 218 222
332 333 335 336 338 346 356 354 351 349 355 360 349 354 13 20 15 6 11 5 1 14 55 144 186 198 209 212 208 203 205 211 211 200 198 202 205 208 212 218 219 221 228
332 331 331 333 335 338 340 340 341 344 349 349 341 339 349 353 345 343 340 332 333 342 335 293 237 229 226 228 229 227 226 224 216 210 204 205 211 218 220 224 227 231 235
328 326 327 330 332 331 336 335 339 342 338 332 326 323 334 335 330 324 318 319 321 317 306 286 269 257 249 244 240 238 235 231 225 220 212 209 213 218 222 226 230 233 234
322 322 324 325 326 327 325 321 325 328 321 316 318 317 314 311 305 302 302 301 303 301 296 289 276 268 263 254 250 246 241 237 231 227 221 214 215 222 222 227 226 229 229
Height
1489 1490 1491 1492 1493 1495 1496 1498 1500 1502 1504 1507 1509 1512 1514 1517 1520 1523 1525 1528 1531 1533 1535 1537 1539 1541 1543 1545 1546 1548 1549 1551 1551 1552 1554 1555 1556 1557 1557 1558 1558 1558 1558
1486 1487 1488 1488 1490 1491 1492 1494 1496 1499 1501 1503 1506 1508 1511 1513 1516 1519 1521 1524 1526 1529 1531 1533 1535 1537 1539 1541 1542 1544 1545 1547 1548 1548 1549 1551 1552 1553 1554 1554 1555 1555 1555
1483 1483 1483 1484 1485 1487 1488 1490 1492 1495 1497 1500 1502 1504 1506 1509 1512 1515 1517 1520 1522 1525 1527 1529 1531 1533 1535 1536 1538 1540 1541 1542 1544 1545 1545 1547 1548 1549 1549 1550 1551 1551 1551
1479 1479 1479 1480 1481 1482 1484 1486 1488 1490 1493 1495 1497 1500 1502 1505 1508 1511 1513 1515 1518 1521 1523 1525 1526 1528 1530 1532 1534 1535 1537 1538 1539 1540 1541 1542 1543 1544 1545 1546 1547 1547 1548
1476 1476 1476 1476 1477 1478 1479 1481 1483 1486 1488 1490 1493 1495 1498 1501 1503 1506 1509 1511 1514 1517 1519 1520 1522 1524 1525 1528 1529 1531 1532 1533 1535 1536 1536 1538 1539 1540 1541 1542 1543 1543 1543
1472 1472 1472 1473 1473 1473 1475 1477 1479 1481 1483 1486 1488 1491 1493 1496 1498 1501 1504 1507 1509 1512 1514 1516 1517 1519 1521 1523 1525 1526 1528 1529 1530 1531 1532 1533 1534 1535 1536 1537 1538 1538 1539
1469 1469 1469 1469 1469 1469 1471 1473 1474 1476 1478 1480 1483 1486 1488 1491 1494 1496 1499 1502 1504 1507 1509 1510 1512 1514 1516 1518 1519 1521 1522 1524 1526 1527 1527 1528 1529 1531 1532 1533 1533 1534 1535
1465 1464 1465 1465 1465 1466 1467 1468 1470 1472 1474 1476 1478 1481 1483 1486 1489 1491 1494 1497 1499 1502 1503 1505 1507 1509 1511 1513 1514 1516 1517 1518 1520 1521 1523 1524 1526 1527 1528 1529 1530 1530 1530
1461 1461 1461 1461 1461 1462 1463 1464 1466 1467 1469 1471 1474 1476 1479 1481 1483 1486 1489 1491 1494 1496 1498 1500 1502 1504 1506 1508 1509 1511 1512 1513 1515 1517 1518 1519 1521 1522 1523 1524 1525 1526 1526
1459 1457 1457 1457 1457 1458 1459 1460 1462 1464 1466 1468 1470 1472 1474 1476 1478 1481 1484 1486 1488 1490 1493 1495 1497 1499 1501 1503 1504 1506 1507 1508 1510 1512 1513 1515 1516 1518 1519 1520 1521 1522 1522
1455 1454 1454 1454 1454 1455 1455 1457 1458 1460 1462 1464 1466 1468 1470 1472 1474 1476 1479 1481 1483 1485 1487 1490 1492 1494 1496 1498 1499 1501 1502 1504 1505 1507 1509 1510 1512 1513 1514 1515 1516 1517 1518
1453 1451 1451 1451 1451 1451 1452 1454 1455 1457 1458 1460 1462 1464 1466 1468 1470 1472 1474 1477 1479 1481 1482 1484 1487 1489 1491 1493 1494 1496 1498 1500 1501 1502 1504 1505 1507 1508 1509 1511 1512 1513 1513
1450 1448 1448 1448 1448 1449 1449 1450 1452 1453 1455 1456 1458 1460 1462 1464 1466 1468 1471 1472 1474 1476 1478 1480 1482 1484 1486 1488 1490 1492 1493 1495 1496 1498 1499 1501 1503 1504 1505 1506 1507 1508 1509
1447 1446 1445 1445 1445 1446 1447 1447 1449 1450 1451 1453 1455 1457 1458 1460 1462 1464 1466 1468 1470 1472 1474 1476 1478 1480 1482 1484 1486 1487 1489 1491 1492 1493 1495 1497 1498 1500 1501 1502 1503 1504 1504
1446 1445 1444 1444 1443 1444 1444 1445 1446 1447 1448 1450 1452 1454 1455 1456 1458 1460 1461 1463 1466 1468 1470 1472 1473 1476 1477 1479 1481 1483 1485 1486 1488 1489 1491 1492 1494 1495 1496 1498 1498 1499 1499
1445 1444 1443 1442 1442 1442 1442 1443 1444 1445 1446 1448 1450 1451 1452 1454 1455 1457 1459 1460 1462 1464 1466 1467 1469 1471 1473 1475 1477 1479 1480 1482 1483 1485 1487 1488 1489 1490 1491 1493 1493 1494 1494
1444 1443 1442 1441 1440 1440 1440 1440 1441 1442 1444 1445 1447 1448 1450 1451 1452 1454 1455 1457 1459 1461 1462 1463 1465 1467 1469 1471 1473 1475 1476 1478 1480 1481 1482 1483 1484 1486 1487 1487 1488 1489 1489
1444 1442 1441 1441 1440 1440 1439 1439 1439 1440 1441 1442 1445 1446 1447 1448 1449 1451 1452 1454 1455 1457 1458 1460 1462 1464 1465 1467 1469 1471 1473 1474 1475 1476 1478 1479 1480 1481 1482 1482 1483 1484 1484
1443 1441 1441 1440 1439 1438 1438 1438 1438 1439 1440 1441 1442 1443 1444 1446 1447 1448 1450 1451 1452 1454 1456 1457 1459 1461 1462 1464 1466 1467 1469 1470 1471 1472 1473 1475 1476 1477 1477 1478 1479 1479 1480
1442 1441 1440 1439 1438 1438 1437 1437 1437 1438 1439 1440 1440 1441 1442 1443 1444 1446 1447 1448 1450 1451 1453 1454 1456 1458 1459 1460 1462 1463 1465 1466 1467 1468 1469 1471 1472 1473 1473 1474 1474 1475 1475
1441 1440 1439 1438 1438 1437 1436 1436 1437 1437 1437 1438 1439 1440 1441 1442 1442 1443 1445 1446 1447 1449 1450 1452 1453 1454 1456 1457 1458 1460 1461 1462 1463 1464 1465 1467 1468 1469 1469 1470 1470 1471 1471
1441 1439 1438 1438 1437 1436 1436 1436 1436 1436 1437 1437 1438 1439 1440 1440 1441 1442 1443 1444 1445 1446 1448 1449 1450 1451 1452 1454 1455 1456 1457 1458 1459 1460 1461 1462 1463 1464 1465 1465 1466 1466 1466
1440 1439 1438 1437 1436 1436 1436 1436 1435 1435 1436 1436 1437 1437 1438 1439 1439 1440 1441 1442 1443 1444 1445 1446 1447 1448 1449 1450 1451 1452 1453 1454 1456 1457 1457 1458 1459 1460 1460 1461 1461 1461 1462
1439 1438 1437 1436 1435 1435 1435 1435 1434 1434 1435 1435 1435 1436 1437 1437 1438 1438 1439 1439 1440 1441 1442 1443 1444 1445 1446 1447 1448 1448 1450 1451 1452 1452 1453 1454 1454 1455 1456 1456 1456 1457 1457
1438 1437 1436 1435 1435 1434 1434 1434 1434 1433 1434 1434 1434 1434 1435 1435 1435 1436 1436 1437 1438 1438 1439 1440 1441 1442 1442 1443 1444 1444 1445 1446 1447 1448 1448 1449 1450 1450 1451 1451 1452 1452 1452
1437 1436 1435 1434 1434 1433 1433 1433 1433 1433 1433 1433 1433 1433 1433 1433 1433 1433 1434 1434 1435 1435 1436 1436 1437 1438 1438 1439 1440 1440 1441 1442 1442 1443 1444 1444 1445 1446 1446 1446 1447 1447 1447